This is the latest recevied weather packets stored in our database for station/object OH2HCY. If no packets are shown the sender has not sent any weather packets the latest 10 day(s).
| Time | Temp. | Humidity | Pressure | Rain* | Wind** | Luminosity | Snow |
|---|---|---|---|---|---|---|---|
| 1777812545 | 15.56° C | 49% | 1002 hPa | - | - | - | - |
| 1777812025 | 16.11° C | 47% | 1001.8 hPa | - | - | - | - |
| 1777811475 | 16.11° C | 50% | 1002 hPa | - | - | - | - |
| 1777810930 | 15.56° C | 52% | 1002.3 hPa | - | - | - | - |
| 1777810395 | 15° C | 52% | 1002.2 hPa | - | - | - | - |
| 1777809850 | 15.56° C | 51% | 1002.2 hPa | - | - | - | - |
| 1777809341 | 15° C | 54% | 1002.5 hPa | - | - | - | - |
| 1777808810 | 15° C | 55% | 1002.7 hPa | - | - | - | - |
| 1777808235 | 14.44° C | 55% | 1003 hPa | - | - | - | - |
| 1777807728 | 14.44° C | 56% | 1003 hPa | - | - | - | - |
| 1777807190 | 14.44° C | 56% | 1002.9 hPa | - | - | - | - |
| 1777806674 | 14.44° C | 56% | 1002.9 hPa | - | - | - | - |
| 1777806160 | 14.44° C | 56% | 1002.8 hPa | - | - | - | - |
| 1777805605 | 14.44° C | 55% | 1002.7 hPa | - | - | - | - |
| 1777805030 | 15° C | 54% | 1002.4 hPa | - | - | - | - |
| 1777804491 | 15° C | 53% | 1002.3 hPa | - | - | - | - |
| 1777803955 | 15° C | 53% | 1002.2 hPa | - | - | - | - |
| 1777803415 | 15° C | 53% | 1002.1 hPa | - | - | - | - |
| 1777802875 | 15° C | 54% | 1002.2 hPa | - | - | - | - |
| 1777802330 | 15° C | 54% | 1002.1 hPa | - | - | - | - |
| 1777801815 | 14.44° C | 56% | 1002.7 hPa | - | - | - | - |
| 1777801240 | 13.33° C | 59% | 1003.4 hPa | - | - | - | - |
| 1777800705 | 12.78° C | 60% | 1003.6 hPa | - | - | - | - |
| 1777800135 | 12.78° C | 60% | 1003.6 hPa | - | - | - | - |
| 1777799630 | 12.78° C | 61% | 1003.7 hPa | - | - | - | - |
* Rain since midnight (hover to see other rain measurements)
** Current wind speed in m/s (hover to see current wind gust speed)